GW4504 Weather Reports


time (UTC)temp
F
wind
direction
speed
knots
gust
knots
rain 1hr
in
rain 24hr
in
rain mn
in
humidity
%
barometer
mb
20260507103044 45 266 0.0 0.0 0.00 0.00 0.00 82 1017.2
20260507101559 46 262 3.5 6.1 0.00 0.00 0.00 80 1017.2
20260507100042 46 304 0.0 0.0 0.00 0.00 0.00 82 1017.1
20260507094553 45 323 0.0 0.0 0.00 0.00 0.00 84 1017.0
20260507093038 45 323 0.0 0.0 0.00 0.00 0.00 83 1016.8
20260507091552 46 323 0.0 0.0 0.00 0.00 0.00 83 1016.8
20260507090043 45 323 0.0 0.0 0.00 0.00 0.00 81 1017.1
20260507084536 46 323 0.0 0.0 0.00 0.00 0.00 80 1017.0
20260507083031 46 323 0.0 0.0 0.00 0.00 0.00 79 1017.1
20260507081542 47 323 0.0 0.0 0.00 0.00 0.00 79 1017.5
20260507080029 47 325 0.0 0.0 0.00 0.00 0.00 77 1017.4
20260507074531 47 323 0.0 0.0 0.00 0.00 0.00 78 1017.6
20260507073027 47 325 0.0 0.0 0.00 0.00 0.00 76 1017.5
20260507071526 47 325 0.0 0.0 0.00 0.00 0.00 79 1017.5
20260507070024 47 325 0.0 0.0 0.00 0.00 0.00 78 1017.3
20260507064526 47 325 0.0 0.0 0.00 0.00 0.00 78 1017.6
20260507063120 48 325 0.0 0.0 0.00 0.00 0.00 77 1017.6
20260507061529 48 325 0.0 0.0 0.00 0.00 0.00 77 1017.7
20260507060028 48 323 0.0 0.0 0.00 0.00 0.00 77 1017.5
20260507054515 49 322 0.0 0.0 0.00 0.00 0.00 76 1017.4
20260507053016 49 325 0.0 0.0 0.00 0.00 0.00 77 1017.3
20260507051512 49 329 0.0 0.0 0.00 0.00 0.00 76 1017.2
20260507050018 49 319 0.0 0.0 0.00 0.00 0.00 77 1017.4
20260507044521 49 319 0.0 0.0 0.00 0.00 0.00 75 1017.3
20260507043007 49 319 0.0 0.0 0.00 0.00 0.00 75 1017.1
20260507041507 49 319 0.0 0.0 0.00 0.00 0.00 77 1017.3
20260507040007 49 314 0.0 0.0 0.00 0.00 0.00 78 1017.3
20260507034507 49 313 0.0 0.0 0.00 0.00 0.00 77 1017.4
20260507033009 50 322 0.0 0.0 0.00 0.00 0.00 77 1017.0
20260507031505 50 321 0.0 0.0 0.00 0.00 0.00 75 1016.7
20260507030005 51 20 0.0 0.0 0.00 0.00 0.00 76 1016.6
20260507024506 51 20 0.0 0.0 0.00 0.00 0.00 74 1016.5
20260507023004 52 20 0.0 0.0 0.00 0.00 0.00 71 1016.4
20260507021503 53 20 0.0 0.0 0.00 0.00 0.00 70 1016.3
20260507020004 54 20 0.0 0.0 0.00 0.00 0.00 67 1016.2
20260507014503 55 20 0.0 0.0 0.00 0.00 0.00 65 1016.0
20260507013002 56 20 0.0 0.0 0.00 0.00 0.00 62 1015.9
20260507011502 58 20 0.0 0.0 0.00 0.00 0.00 57 1015.7
20260507010002 59 16 1.7 4.3 0.00 0.00 0.00 56 1015.5
20260507004501 60 34 0.9 5.2 0.00 0.00 0.00 55 1015.4
20260507003101 60 13 3.5 7.0 0.00 0.00 0.00 54 1015.3
20260507001606 60 18 3.5 8.7 0.00 0.00 0.00 54 1015.2
20260507000100 61 16 3.5 8.7 0.00 0.00 0.00 55 1015.1
20260506234559 61 9 3.5 9.6 0.00 0.00 0.00 54 1015.0
20260506233059 63 19 3.5 8.7 0.00 0.00 0.00 51 1014.7
20260506231557 63 5 1.7 7.8 0.00 0.00 0.00 52 1014.5
20260506230103 62 19 5.2 10.4 0.00 0.00 0.00 49 1014.3
20260506224558 63 36 5.2 10.4 0.00 0.00 0.00 51 1014.3
20260506223055 63 34 6.1 12.2 0.00 0.00 0.00 52 1014.1
20260506221556 63 61 6.1 14.8 0.00 0.00 0.00 52 1014.0
20260506220054 63 26 7.8 14.8 0.00 0.00 0.00 50 1014.0
20260506214553 63 71 5.2 16.5 0.00 0.00 0.00 52 1014.2
20260506213052 63 19 7.0 13.9 0.00 0.00 0.00 52 1014.2
20260506211552 63 44 5.2 12.2 0.00 0.00 0.00 53 1014.2
20260506210052 64 5 6.1 14.8 0.00 0.00 0.00 54 1014.4
20260506204547 63 16 5.2 9.6 0.00 0.00 0.00 54 1014.6
20260506203051 63 25 4.3 13.9 0.00 0.00 0.00 54 1014.7
20260506201604 63 355 6.1 13.0 0.00 0.00 0.00 55 1014.8
20260506200042 63 38 5.2 12.2 0.00 0.00 0.00 55 1014.9
20260506194549 61 335 3.5 10.4 0.00 0.00 0.00 57 1015.1
20260506193044 62 51 5.2 12.2 0.00 0.00 0.00 55 1015.4
20260506191542 62 62 4.3 10.4 0.00 0.00 0.00 56 1015.5
20260506190038 62 81 4.3 13.9 0.00 0.00 0.00 56 1015.6
20260506184547 61 86 5.2 13.0 0.00 0.00 0.00 56 1015.7
20260506183039 61 49 7.8 13.9 0.00 0.00 0.00 56 1015.9
20260506181532 62 71 5.2 11.3 0.00 0.00 0.00 58 1016.1
20260506180029 61 5 4.3 13.0 0.00 0.00 0.00 59 1016.2
20260506174526 60 38 7.0 12.2 0.00 0.00 0.00 56 1016.5
20260506173022 60 96 6.1 13.9 0.00 0.00 0.00 57 1016.8
20260506171518 59 81 5.2 11.3 0.00 0.00 0.00 57 1017.1
20260506170016 58 102 7.0 14.8 0.00 0.00 0.00 57 1017.2
20260506164512 58 71 7.8 16.5 0.00 0.00 0.00 59 1017.3
20260506163017 58 86 5.2 13.0 0.00 0.00 0.00 61 1017.3
20260506161505 57 66 7.8 13.0 0.00 0.00 0.00 61 1017.1
20260506160007 57 12 7.8 13.0 0.00 0.00 0.00 63 1016.9
20260506154607 56 30 4.3 13.0 0.00 0.00 0.00 67 1016.7
20260506153055 57 56 6.1 12.2 0.00 0.00 0.00 67 1016.1
20260506151552 56 16 4.3 15.6 0.00 0.00 0.00 71 1016.1
20260506150048 55 10 3.5 11.3 0.00 0.00 0.00 73 1015.8
20260506144545 54 51 6.1 12.2 0.00 0.00 0.00 74 1015.8
20260506143039 53 355 3.5 10.4 0.00 0.00 0.00 75 1015.8
20260506141536 52 346 2.6 8.7 0.00 0.00 0.00 78 1016.1
20260506140038 51 76 3.5 9.6 0.00 0.00 0.00 78 1015.8
20260506134530 50 74 4.3 8.7 0.00 0.00 0.00 80 1016.0
20260506133028 50 36 4.3 8.7 0.00 0.00 0.00 81 1015.7
20260506131526 49 51 4.3 9.6 0.00 0.00 0.00 82 1016.0
20260506130028 49 54 4.3 8.7 0.00 0.00 0.00 83 1016.2
20260506124522 48 58 4.3 10.4 0.00 0.00 0.00 85 1015.9
20260506123021 48 69 3.5 8.7 0.00 0.00 0.00 86 1015.6
20260506121519 48 17 3.5 9.6 0.00 0.00 0.00 86 1015.7
20260506120022 47 5 3.5 8.7 0.00 0.00 0.00 87 1015.3
20260506114518 47 53 3.5 8.7 0.00 0.00 0.00 87 1015.4
20260506113018 47 26 1.7 7.8 0.00 0.00 0.00 87 1015.7
20260506111516 47 19 2.6 8.7 0.00 0.00 0.00 87 1015.5
20260506110013 47 5 3.5 10.4 0.00 0.00 0.00 86 1015.4
20260506104511 47 343 3.5 7.8 0.00 0.00 0.00 86 1015.3